Volver al catálogo

CZ-6A DEB

ActivoPO
NORAD 61149·DEBRIS·🇨🇳 China

Lanzado Aug 6, 2024 desde Taiyuan Satellite Launch Center

Loading…

Próximos Pases (próximas 24 horas)

TLE

ActualizadoSource: Space-Track

Época: Sep 14, 2026, 00:09 UTC

1 61149U 24140QT  26257.00684616  .00000607  00000-0  23932-3 0  9990
2 61149  88.9453 258.9255 0027281 295.7434  64.0945 14.27729800107398

Sigue CZ-6A DEB en tiempo real con AllMySat

Download on the App Store